Flag for Vietnam Weather past 2 weeks in Da Nang, Vietnam

Now
77 °F

Passing clouds.


Feels Like: 78 °F
Forecast: 76 / 80 °F
Wind: 1 mph from North

Location: Da Nang Airport

Current Time: Oct 22, 2014 at 9:13:03 PM

Latest Report: Oct 22, 2014 at 8:30 PM


Visibility: 4 mi

Pressure: 29.95 "Hg

Humidity: 94%

Dew point: 75 °F

Location of Da NangLocation

Historic Weather in Da Nang — Graph

°F

Da Nang temperature yesterday

Maximum temperature yesterday: 88 °F (at 12:30 PM)
Minimum temperature yesterday: 75 °F (at 2:00 AM)
Average temperature yesterday: 81 °F

Past Weeks' High & Low Weather Summary

 TemperatureHumidityPressure
High88 °F (Oct 9, 10:30 AM)100% (Oct 17, 4:30 AM)30.07 "Hg (Oct 17, 4:30 AM)
Low70 °F (Oct 9, 4:30 AM)52% (Oct 9, 11:00 AM)29.77 "Hg (Oct 10, 3:00 PM)
Average79 °F81%29.93 "Hg
* Reported Oct 7 8:00 PM — Oct 22 8:00 PM, Da Nang, Weather by CustomWeather, © 2014

Note: Actual official high and low records may vary slightly from our data, if they occured in-between our weather recording intervals... More about our weather records

Advertising

Da Nang weather history for previous 24 hours

 ConditionsComfort  
Time TempWeatherWind HumidityBarometerVisibility
8:00 PM
Oct 22
77 °FRain. Partly cloudy.1 mph94%29.95 "Hg2 mi
7:30 PM77 °FPassing clouds.2 mph94%29.95 "Hg4 mi
7:00 PM77 °FThunderstorms. Partly cloudy.3 mph94%29.92 "Hg4 mi
6:30 PM75 °FThunderstorms. Partly cloudy.3 mph100%29.92 "Hg3 mi
6:00 PM77 °FRain. Partly cloudy.6 mph94%29.92 "Hg2 mi
5:30 PM81 °FPassing clouds.5 mph84%29.92 "Hg5 mi
5:00 PM81 °FScattered clouds.2 mph84%29.92 "Hg5 mi
4:30 PM81 °FScattered clouds.2 mph84%29.89 "Hg5 mi
4:00 PM77 °FScattered clouds.5 mph94%29.89 "Hg5 mi
3:30 PM82 °FScattered clouds.3 mph84%29.89 "Hg5 mi
3:00 PM81 °FSprinkles. Scattered clouds.8 mph89%29.89 "Hg5 mi
2:30 PM84 °FScattered clouds.6 mph79%29.89 "HgN/A
2:00 PM84 °FScattered clouds.3 mph74%29.92 "HgN/A
1:30 PM84 °FBroken clouds.1 mph74%29.92 "Hg5 mi
1:00 PM82 °FBroken clouds.1 mph84%29.95 "Hg5 mi
12:30 PM81 °FBroken clouds.No wind89%29.95 "Hg5 mi
12:00 PM79 °FBroken clouds.2 mph89%29.98 "Hg4 mi
11:30 AM77 °FBroken clouds.2 mph94%29.98 "Hg4 mi
11:00 AM77 °FBroken clouds.1 mph94%30.01 "Hg4 mi
10:30 AM77 °FLight rain. Broken clouds.2 mph94%30.01 "Hg4 mi
10:00 AM75 °FLight rain. Broken clouds.6 mph100%30.04 "Hg3 mi
9:30 AM75 °FThunderstorms. Broken clouds.6 mph100%30.04 "Hg1 mi
9:00 AM75 °FThunderstorms. Broken clouds.7 mph100%30.04 "Hg1 mi
8:30 AM75 °FLight rain. Fog.3 mph100%30.01 "Hg3 mi
7:30 AM75 °FPartly sunny.1 mph100%30.01 "Hg4 mi
7:00 AM75 °FPartly sunny.2 mph100%29.98 "Hg4 mi
6:30 AM75 °FRain. Broken clouds.3 mph94%29.98 "Hg1 mi
6:00 AM75 °FThunderstorms. Broken clouds.6 mph100%29.98 "Hg1 mi
5:30 AM77 °FPartly cloudy.6 mph94%29.95 "Hg4 mi
5:00 AM77 °FPartly cloudy.3 mph94%29.95 "Hg4 mi
4:30 AM77 °FPartly cloudy.1 mph94%29.92 "Hg4 mi
3:30 AM77 °FPartly cloudy.No wind94%29.92 "Hg4 mi
3:00 AM77 °FPartly cloudy.1 mph94%29.92 "Hg4 mi
2:30 AM77 °FPartly cloudy.3 mph94%29.92 "Hg4 mi
2:00 AM77 °FLight rain. Partly cloudy.3 mph94%29.95 "Hg4 mi
1:30 AM79 °FPassing clouds.2 mph89%29.95 "Hg4 mi
1:00 AM77 °FLight rain. Passing clouds.2 mph94%29.95 "Hg4 mi
12:30 AM79 °FPassing clouds.1 mph89%29.98 "HgN/A
12:00 AM79 °FPassing clouds.5 mph89%29.95 "HgN/A
11:30 PM
Oct 21
79 °FPassing clouds.2 mph89%29.98 "HgN/A
11:00 PM79 °FPassing clouds.3 mph89%29.98 "HgN/A
10:30 PM79 °FPassing clouds.5 mph89%29.98 "HgN/A
10:00 PM81 °FPassing clouds.6 mph84%29.98 "HgN/A
9:30 PM82 °FPassing clouds.5 mph79%29.98 "HgN/A
9:00 PM82 °FPassing clouds.1 mph74%29.98 "HgN/A
Weather by CustomWeather, © 2014

See weather overviewHow to use our weather pages